Weather History for Poplar Bluff, MO

Change the Weather History Date:

Sunday, December 16, 2012

  Actual Average Record
Temperature  
Mean Temperature 50 °F -  
Max Temperature 60 °F 46 °F 71 °F (1924)
Min Temperature 39 °F 26 °F -2 °F (1989)
Degree Days  
Heating Degree Days 16    
Moisture  
Dew Point 49 °F    
Average Humidity 91    
Maximum Humidity 100    
Minimum Humidity 77    
Precipitation  
Precipitation 0.00 in - - ()
Sea Level Pressure  
Sea Level Pressure 29.73 in    
Wind  
Wind Speed 4 mph (SSW)    
Max Wind Speed 8 mph    
Max Gust Speed -    
Visibility 5 miles    
Events Fog    
Averages and records for this station are not official NWS values.
T = Trace of Precipitation, MM = Missing Value Source: NWS Daily Summary

Daily Weather History Graph

Daily Weather History Graph

Search for Another Location

Airport:

Trip Planner

Search our weather history database for the weather conditions in past years. The results will help you decide how hot, cold, wet, or windy it might be!

Date:

Astronomy

Dec. 16, 2012 Rise Set
Actual Time 7:07 AM CST 4:46 PM CST
Civil Twilight 6:38 AM CST 5:15 PM CST
Nautical Twilight 6:06 AM CST 5:48 PM CST
Astronomical Twilight 5:34 AM CST 6:19 PM CST
Moon 9:45 AM CST (12/16) 8:56 PM CST (12/16)
Length of Visible Light 10h 37m
Length of Day
9h 39m
Waxing Crescent, 16% of the Moon is Illuminated
Dec 16
Waxing Crescent
Dec 19
First Quarter
Dec 28
Full
Jan 4
Last Quarter
Jan 11
New

Hourly Weather History & Observations

Time (CST) Temp. Dew Point Humidity Pressure Visibility Wind Dir Wind Speed Gust Speed Precip Events Conditions
12:07 AM 60.8 °F 57.2 °F 88% 29.75 in 10.0 mi SW 8.1 mph - N/A   Mostly Cloudy
12:53 AM 60.1 °F 57.0 °F 90% 29.75 in 10.0 mi SW 8.1 mph - N/A   Mostly Cloudy
1:53 AM 57.9 °F 55.9 °F 93% 29.75 in 7.0 mi SSW 6.9 mph - N/A   Overcast
2:53 AM 57.9 °F 55.9 °F 93% 29.75 in 6.0 mi SW 5.8 mph - N/A   Overcast
3:53 AM 57.0 °F 55.0 °F 93% 29.75 in 5.0 mi SW 3.5 mph - N/A   Overcast
4:26 AM 55.4 °F 53.6 °F 94% 29.75 in 5.0 mi SSW 5.8 mph - N/A   Scattered Clouds
4:53 AM 54.0 °F 53.1 °F 97% 29.75 in 4.0 mi SSW 3.5 mph - N/A   Clear
5:10 AM 53.6 °F 53.6 °F 100% 29.75 in 1.8 mi SSW 3.5 mph - N/A   Clear
5:18 AM 53.6 °F 53.6 °F 100% 29.75 in 0.8 mi Calm Calm - N/A   Mist
5:30 AM 53.6 °F 51.8 °F 94% 29.75 in 0.2 mi South 4.6 mph - N/A Fog Fog
5:53 AM 54.0 °F 53.1 °F 97% 29.76 in 0.2 mi SSW 4.6 mph - N/A Fog Fog
6:53 AM 51.1 °F 51.1 °F 100% 29.76 in 0.2 mi Calm Calm - N/A Fog Fog
7:53 AM 51.1 °F 50.0 °F 96% 29.78 in 0.2 mi SSW 3.5 mph - N/A Fog Fog
8:12 AM 51.8 °F 50.0 °F 94% 29.78 in 1.0 mi Variable 3.5 mph - N/A   Mist
8:17 AM 51.8 °F 50.0 °F 94% 29.77 in 2.0 mi Calm Calm - N/A   Scattered Clouds
8:28 AM 51.8 °F 50.0 °F 94% 29.77 in 3.0 mi Calm Calm - N/A   Partly Cloudy
8:53 AM 52.0 °F 51.1 °F 97% 29.77 in 5.0 mi SSW 3.5 mph - N/A   Clear
9:53 AM 55.0 °F 51.1 °F 86% 29.77 in 10.0 mi SSW 4.6 mph - N/A   Clear
10:53 AM 57.0 °F 50.0 °F 77% 29.73 in 10.0 mi SSW 3.5 mph - N/A   Clear
11:53 AM 57.0 °F 50.0 °F 77% 29.73 in 10.0 mi South 6.9 mph - N/A   Clear
12:53 PM 57.9 °F 51.1 °F 78% 29.70 in 10.0 mi SSW 4.6 mph - N/A   Clear
1:53 PM 57.9 °F 51.1 °F 78% 29.66 in 10.0 mi South 5.8 mph - N/A   Clear
2:53 PM 57.0 °F 50.0 °F 77% 29.66 in 10.0 mi Calm Calm - N/A   Clear
3:53 PM 55.9 °F 51.1 °F 84% 29.67 in 10.0 mi SW 5.8 mph - N/A   Clear
4:53 PM 55.0 °F 48.9 °F 80% 29.67 in 10.0 mi SW 5.8 mph - N/A   Clear
5:53 PM 53.1 °F 48.9 °F 86% 29.69 in 10.0 mi SSW 3.5 mph - N/A   Clear
6:53 PM 50.0 °F 48.0 °F 93% 29.70 in 8.0 mi South 4.6 mph - N/A   Clear
7:53 PM 50.0 °F 46.9 °F 89% 29.72 in 4.0 mi Calm Calm - N/A   Clear
8:00 PM 46.4 °F 46.4 °F 100% 29.71 in 1.5 mi Calm Calm - N/A   Clear
8:08 PM 46.4 °F 44.6 °F 93% 29.71 in 0.5 mi Calm Calm - N/A Fog Fog
8:34 PM 46.4 °F 44.6 °F 93% 29.71 in 1.0 mi Calm Calm - N/A   Clear
8:36 PM 44.6 °F 44.6 °F 100% 29.71 in 0.5 mi Calm Calm - N/A Fog Fog
8:44 PM 42.8 °F 41.0 °F 93% 29.71 in 0.2 mi Calm Calm - N/A Fog Fog
8:53 PM 42.1 °F 41.0 °F 96% 29.72 in 0.2 mi Calm Calm - N/A Fog Fog
9:53 PM 42.1 °F 39.9 °F 92% 29.72 in 0.2 mi Calm Calm - N/A Fog Fog
10:53 PM 39.9 °F 39.0 °F 97% 29.72 in 0.5 mi Calm Calm - N/A Fog Fog
11:02 PM 41.0 °F 39.2 °F 93% 29.72 in 1.2 mi Calm Calm - N/A   Overcast
11:07 PM 42.8 °F 39.2 °F 87% 29.72 in 3.0 mi Calm Calm - N/A   Overcast
11:53 PM 45.0 °F 43.0 °F 93% 29.71 in 10.0 mi Calm Calm - N/A   Overcast